Regional Weather Roundup
Issued by NWS State College, PA

Home | Current Version | Previous Version | Graphics & Text | Print | Product List | Glossary Off
Versions: 1 2 3 4 5 6 7 8 9 10 11 12 13 14 15 16 17 18 19 20 21 22 23 24 25 26 27 28 29 30 31 32 33 34 35 36 37 38 39 40 41 42 43 44 45 46 47 48 49 50

000
ASUS41 KCTP 251303
RWRCTP

REGIONAL WEATHER ROUNDUP
NATIONAL WEATHER SERVICE STATE COLLEGE PA
900 AM EDT TUE JUL 25 2017

Note: "fair" indicates few or no clouds below 12,000 feet with no
significant weather and/or obstructions to visibility.

* = STATION THAT DOES NOT REPORT PRECIPITATION /E.G. RAIN...SNOW...ETC/
    THUNDER OR FOG.

PAZ002>004-007>009-013>016-020>023-029>032-251400-
WESTERN PENNSYLVANIA

CITY           SKY/WX    TMP DP  RH WIND       PRES   REMARKS
ERIE           CLOUDY    65  56  72 N9        30.17R
MEADVILLE      CLOUDY    62  60  93 CALM      30.19R
FRANKLIN*      CLOUDY    61  55  82 N5        30.18R
NEW CASTLE     CLOUDY    63  59  87 W3        30.19R
BEAVER COUNTY  CLOUDY    61  57  88 NW5       30.18R
BUTLER*        CLOUDY    63  55  77 W3        30.18R
PITTSBURGH INT DRIZZLE   63  58  83 NW12      30.18R
PITTSBURGH     CLOUDY    64  55  72 VRB6      30.16R
INDIANA*       CLOUDY    63  59  88 VRB5      30.19R
LATROBE        CLOUDY    64  57  77 NW7       30.17R
WASHINGTON CO* CLOUDY    63  55  77 W3        30.18R
$$

PAZ004>006-010>012-017>019-024>028-033>037-041-042-045-046-049>053-251400-
CENTRAL PENNSYLVANIA

CITY           SKY/WX    TMP DP  RH WIND       PRES   REMARKS
BRADFORD       CLOUDY    59  58  96 NW9       30.15R
DUBOIS         CLOUDY    61  56  83 N9        30.15R
CLEARFIELD     CLOUDY    64  58  80 W6        30.14R
JOHNSTOWN      CLOUDY    59  55  87 NW12      30.16R
ALTOONA        CLOUDY    63  56  78 NW13      30.14R
STATE COLLEGE  LGT RAIN  63  59  88 NW15      30.12R
WILLIAMSPORT   CLOUDY    70  59  68 N12       30.07R
SELINSGROVE    CLOUDY    69  63  81 CALM      30.08R
FT INDIANTOWN  PTSUNNY   68  59  73 CALM      30.06S
CAPITAL CITY   PTSUNNY   71  58  63 NW12      30.07R
HARRISBURG     MOSUNNY   72  60  66 NW13      30.06R
YORK           SUNNY     70  61  73 NW12      30.07R
$$

PAZ038>040-043-044-047-048-054-055-060>062-067>071-251400-
EASTERN PENNSYLVANIA

CITY           SKY/WX    TMP DP  RH WIND       PRES   REMARKS
SCRANTON       CLOUDY    64  62  93 VRB5      30.07R
MOUNT POCONO   CLOUDY    63  61  93 NW5       30.08R
ALLENTOWN      PTSUNNY   68  62  81 NE8       30.05R
QUAKERTOWN*    CLOUDY    64  64 100 CALM      30.07R
READING        CLOUDY    71  64  78 W3        30.04R
LANCASTER      SUNNY     71  63  75 NW10      30.06R
COATESVILLE    NOT AVBL
POTTSTOWN      PTSUNNY   68  65  90 E3        30.06R
BLUE BELL      CLOUDY    64  63  94 CALM      30.06R
DOYLESTOWN     CLOUDY    64  62  93 CALM      30.05R
WILLOW GROVE   NOT AVBL
NORTH PHILA    CLOUDY    69  64  84 NE8       30.06R
PHILADELPHIA   CLOUDY    69  64  84 E6        30.04R
$$



USA.gov is the U.S. government's official web portal to all federal, state and local government web resources and services.